Location: Izdebno
(52.6670°N, 16.2170°E)
Time: 11:27:54
(UTC+02:00)

A-11 Canister half - Pass Details

Date: 13 February 2023
Orbit: 1526 x 1682 km, 47.3° (Epoch: 26 March)

Event Time Altitude Azimuth Distance (km) Brightness Sun altitude
Rises 10:32:53 0° 284° (WNW) 4,695 11.2 20.8°
Reaches altitude 10° 10:37:18 10° 266° (W) 3,725 10.9 21.0°
Maximum altitude 10:42:41 17° 231° (SW) 3,224 11.0 21.4°
Drops below altitude 10° 10:48:08 10° 195° (SSW) 3,775 12.1 21.7°
Sets 10:52:42 0° 177° (S) 4,787 12.9 21.9°
